Temp
11 11 11 11 11 10 11 12 10 9 9 11 12 12 12 12 13 14 14 11 11 10 11 13 14 15 16 17 17 17 20 22 22 20 20 17 16 18 17 15 17 17 17 16 12
11 11 11 11 11 11 11 11 11 11 10 10 11 12 12 12 13 14 11 10 10 10 12 14 15 15 17 16 16 18 20 21 18 18 18 17 16 16 15 16 16 17 17 15 12
11 11 11 11 11 11 11 11 11 11 11 11 11 11 12 12 15 14 11 11 11 11 11 12 13 15 16 16 16 17 19 17 17 16 15 15 15 16 15 14 16 14 13 12 10
11 11 11 11 11 11 11 11 11 11 11 11 11 11 12 12 16 13 11 11 11 11 12 13 15 16 17 16 15 15 16 16 15 14 13 13 14 14 14 15 11 11 10 10 10
11 11 11 11 11 11 11 12 11 12 11 11 11 11 12 15 15 11 11 11 11 11 13 14 15 15 16 15 14 15 16 14 14 13 13 13 12 13 13 14 11 10 9 9 9
11 11 11 11 11 11 12 11 11 11 11 11 11 11 13 14 11 11 11 11 11 13 13 14 14 14 14 14 14 14 14 14 13 13 13 11 12 13 13 10 10 9 10 10 9
11 10 10 11 11 11 12 12 12 12 11 11 11 11 14 15 11 11 10 10 10 11 13 12 12 13 14 14 13 12 13 14 14 13 12 11 11 12 13 9 9 10 10 9 8
11 10 10 11 11 11 12 12 12 12 11 11 11 12 15 11 11 11 11 11 11 11 11 11 11 13 13 12 12 13 13 17 16 13 12 10 11 14 10 9 10 10 9 8 8
11 11 11 11 11 11 12 12 11 11 11 11 11 13 15 11 12 10 10 12 11 11 11 11 12 13 13 14 16 14 16 16 15 12 11 10 10 11 10 9 8 9 8 8 7
11 11 11 11 11 12 12 11 11 11 11 11 12 13 12 13 11 10 9 10 12 12 12 12 13 14 15 16 15 16 15 15 14 14 13 11 11 12 12 11 8 8 8 7 6
10 10 11 11 11 12 12 11 14 13 12 14 14 14 12 10 10 10 9 11 12 12 13 13 13 15 17 14 13 12 12 12 15 13 10 11 10 11 11 11 8 8 7 6 4
10 10 10 11 11 12 11 13 9 7 12 11 11 12 11 11 12 11 9 11 12 13 12 12 14 14 12 12 11 12 12 14 14 11 10 10 10 11 11 10 9 7 6 4 3
10 10 10 10 11 10 9 8 7 6 11 11 11 12 11 11 12 12 11 11 12 13 13 14 14 11 11 12 12 12 12 13 11 10 11 9 11 10 7 8 6 6 5 4 2
10 10 10 10 11 9 10 8 7 6 13 12 11 11 11 11 11 9 9 10 11 12 12 13 11 11 11 12 10 9 11 9 9 7 11 7 10 11 9 7 6 6 5 3 2
10 9 10 10 10 12 8 8 7 7 14 12 11 9 10 11 10 9 8 10 11 12 10 13 11 11 9 11 9 10 9 9 8 6 6 8 7 12 8 8 7 6 3 2 1
9 9 9 9 9 8 7 7 7 12 14 12 11 11 10 10 10 10 9 9 9 10 10 11 9 9 10 9 8 8 8 9 6 7 7 9 9 12 10 6 6 5 2 0 -1
9 9 9 8 8 8 7 7 11 13 12 12 12 11 11 11 10 10 11 10 11 11 12 11 10 8 7 8 9 8 9 13 12 11 13 8 7 10 6 4 2 0 -2 -2 -1
7 9 7 7 7 7 8 9 12 11 10 11 11 10 10 9 9 10 11 12 9 9 12 13 13 8 6 7 6 7 8 11 11 13 12 9 7 10 2 1 0 -1 -3 -0 -1
7 7 6 5 6 7 9 10 11 11 11 11 11 10 10 8 7 10 11 13 12 9 10 11 12 7 5 5 6 7 9 7 7 5 5 10 11 5 3 3 1 -0 -1 -1 -2
7 5 3 5 5 6 7 10 10 6 6 6 9 8 9 9 8 9 12 11 9 8 7 8 11 8 5 5 6 6 7 7 6 9 10 14 12 10 4 2 1 -1 -1 -2 -2
6 6 4 5 6 7 9 8 6 3 4 6 8 8 8 7 10 11 12 9 9 7 7 7 7 8 6 5 8 6 7 6 6 7 9 9 12 4 2 -0 -2 -2 -2 -3 -3
6 8 4 5 6 4 7 6 4 4 3 4 5 8 7 7 8 9 10 11 9 8 8 7 7 9 9 2 3 5 6 7 9 7 7 5 8 2 -0 -2 -3 -3 -3 -3 -4
7 6 4 4 8 7 5 5 4 4 4 5 7 7 5 5 7 8 9 7 7 7 7 6 9 11 9 4 4 4 4 5 4 4 7 8 12 -0 -2 -2 -2 -4 -4 -4 -5
7 7 5 5 3 5 6 7 6 4 4 4 6 5 4 5 5 6 7 6 6 7 5 5 7 8 13 9 5 5 4 3 5 7 9 7 9 6 3 0 -2 -4 -5 -6 -6
7 6 4 7 6 6 5 6 7 6 4 4 6 5 5 7 5 4 5 6 5 6 5 5 6 4 5 5 1 3 4 3 3 5 7 7 1 5 3 -1 -4 -6 -6 -6 -6
7 6 4 6 5 5 5 7 7 7 6 6 5 5 5 6 6 7 6 7 7 6 5 4 7 2 4 -0 -2 1 2 2 3 3 2 1 2 3 -2 -5 -5 -5 -6 -6 -6
4 4 7 6 5 6 8 7 7 5 7 7 6 5 4 5 3 4 6 5 6 6 5 4 6 6 10 2 3 6 2 1 3 2 3 4 7 1 -0 -1 -1 -3 -5 -5 -6
Height
816 815 813 811 808 805 802 799 798 797 796 794 793 793 794 794 793 792 791 793 790 786 782 782 782 781 779 778 778 776 765 754 753 762 760 775 777 771 776 778 775 774 773 775 782
817 816 813 810 809 805 803 800 798 797 796 794 793 793 793 794 794 792 793 790 788 785 784 782 780 780 777 779 778 772 762 753 767 767 771 771 776 775 778 773 771 768 769 775 782
817 816 813 810 808 806 802 800 798 797 795 795 793 794 794 794 793 793 792 789 787 786 786 784 783 780 777 778 779 774 763 772 770 775 779 778 778 775 775 772 770 773 778 782 784
817 816 813 811 808 805 802 799 797 796 795 794 794 793 794 795 789 792 791 789 788 787 787 785 782 778 774 776 781 779 773 776 777 781 783 781 778 775 773 770 781 784 786 786 783
817 815 813 810 808 805 801 798 796 795 795 794 794 793 795 793 789 792 789 789 789 789 787 785 780 778 776 778 783 779 775 778 778 780 780 780 778 777 771 771 781 786 787 785 783
818 815 812 810 807 804 800 797 795 793 792 793 794 793 794 793 792 792 790 789 790 789 788 787 784 784 781 781 782 781 780 778 778 779 778 780 775 774 768 778 781 782 781 781 781
818 815 812 809 806 802 798 795 792 791 791 792 793 794 793 789 791 792 791 790 790 790 789 790 790 787 784 782 785 784 780 771 773 777 778 783 772 765 763 779 779 778 778 779 780
816 814 811 808 805 801 797 794 791 791 791 792 793 794 785 791 792 791 792 792 791 791 791 792 792 789 786 789 785 780 778 757 759 772 776 786 762 754 772 777 775 775 777 779 779
815 813 810 807 803 800 796 793 791 790 792 792 794 793 785 790 791 791 791 792 791 792 793 792 791 787 786 776 768 771 759 756 758 770 778 782 766 762 770 775 775 774 776 778 778
815 813 810 806 802 798 795 793 791 791 792 793 793 795 793 787 789 791 791 793 792 791 791 790 786 779 773 765 766 761 762 758 759 758 760 765 754 753 756 759 771 772 775 776 778
814 812 809 806 801 798 795 795 794 793 792 784 784 785 787 790 790 791 791 792 792 790 781 784 781 769 758 773 775 776 775 766 751 759 769 758 754 751 754 757 769 771 774 776 778
813 811 809 805 801 799 797 797 803 805 790 786 786 787 789 789 788 790 792 791 788 779 782 784 771 768 778 781 782 774 767 755 751 762 768 756 747 745 748 753 762 771 775 777 777
811 809 808 805 801 799 801 802 801 802 793 785 786 785 788 790 784 786 790 788 783 777 777 772 767 780 782 775 776 769 762 756 766 764 753 760 733 738 759 760 769 774 774 777 778
808 807 807 805 804 802 802 801 802 801 787 781 785 787 788 788 787 791 791 791 785 778 776 773 778 780 778 774 783 784 769 776 775 779 750 774 744 730 749 762 768 770 775 778 778
805 805 805 804 804 803 806 801 802 803 784 783 786 789 789 789 790 790 793 790 780 775 787 765 775 777 785 774 785 775 776 775 779 786 784 765 776 721 752 755 756 767 777 778 779
804 802 804 804 803 804 804 803 804 795 776 779 785 785 787 787 787 788 789 791 790 784 782 774 785 784 780 784 786 784 778 771 783 780 770 754 758 717 734 759 762 770 779 780 780
803 801 802 804 805 804 804 805 799 783 780 780 780 784 784 783 785 784 782 782 774 776 766 773 774 785 791 785 783 782 771 734 733 738 721 766 764 728 762 772 779 784 786 784 777
801 801 801 803 805 805 803 803 787 783 784 783 784 786 783 785 788 782 777 770 782 783 763 755 752 781 794 792 794 789 785 755 753 725 724 749 760 728 775 780 783 784 786 776 774
800 800 802 802 804 806 803 803 783 780 785 782 780 782 782 788 795 781 771 760 766 779 772 763 758 790 797 798 796 788 775 793 790 797 791 735 730 761 771 772 776 778 777 773 773
800 802 805 804 804 807 807 789 790 803 801 799 789 790 782 784 788 782 762 768 775 784 787 785 765 780 796 800 798 794 794 783 792 761 743 704 715 720 761 772 772 777 775 773 771
800 804 808 805 805 808 799 796 804 811 810 800 790 789 791 792 782 774 761 775 777 788 787 789 791 779 793 797 779 795 786 789 788 786 762 744 704 758 771 778 778 778 774 774 773
799 803 809 807 809 813 802 805 812 809 810 807 805 792 792 795 786 782 771 768 780 784 782 788 787 766 763 802 801 795 787 779 763 777 783 789 747 768 777 780 779 777 775 775 776
800 807 809 809 801 803 809 808 810 808 806 805 797 795 803 800 788 784 778 789 787 786 786 793 771 753 758 794 798 798 796 793 797 798 770 765 711 775 779 776 774 779 777 778 778
802 802 809 811 813 808 805 800 802 809 808 807 798 801 804 797 800 793 785 790 792 789 795 795 784 772 735 757 784 788 792 798 788 774 753 761 733 744 755 765 771 777 779 781 782
799 801 804 801 806 806 810 803 797 797 807 805 797 799 798 788 797 799 796 790 794 793 796 795 785 795 781 783 804 789 784 792 791 775 762 747 780 747 754 768 776 781 781 780 782
797 801 806 804 806 806 806 799 796 795 798 795 800 795 798 793 791 785 791 786 782 793 795 800 781 802 786 804 814 800 786 792 788 784 784 781 772 755 771 778 778 776 779 778 778
799 800 797 800 804 803 793 796 794 799 791 792 796 797 797 793 800 799 793 793 791 791 793 798 788 785 748 790 784 761 769 780 774 774 767 761 738 762 765 767 766 770 776 776 777
Wind_Speed
11 11 12 13 14 14 15 14 10 7 6 3 4 7 6 4 8 5 6 8 11 13 7 3 1 2 1 2 1 2 5 6 5 4 2 2 4 5 5 12 14 12 13 9 13
11 12 12 13 15 14 15 13 11 6 5 3 3 6 6 3 5 6 7 12 10 7 2 1 3 3 2 2 1 4 4 4 4 4 6 8 10 11 9 14 17 18 14 10 18
12 12 13 13 14 15 15 13 11 7 4 3 2 3 6 3 6 3 12 9 6 4 1 1 2 2 3 2 1 1 3 4 1 4 6 9 13 14 16 18 17 10 11 14 19
12 12 14 14 14 14 16 13 11 9 4 2 2 3 3 3 3 3 11 7 5 1 1 2 3 3 3 3 1 4 3 4 2 2 5 12 13 14 15 17 6 7 10 13 16
12 13 14 15 16 16 17 13 11 9 5 3 4 3 0 5 2 4 6 4 5 3 2 1 2 1 3 1 2 6 3 3 7 8 12 11 15 16 16 14 4 7 10 11 13
13 14 15 16 17 17 19 14 14 10 5 4 4 4 3 6 3 6 2 3 5 3 4 2 2 1 1 1 4 3 9 10 5 6 9 10 15 15 11 2 6 8 10 11 13
13 16 17 18 19 19 19 15 12 6 5 5 4 4 5 2 2 5 0 1 3 2 1 4 4 3 1 2 1 4 7 7 4 1 5 8 17 12 4 3 7 10 10 11 12
13 16 18 19 20 22 16 15 6 1 4 5 3 4 3 3 2 3 1 1 2 3 3 2 3 2 3 1 3 4 3 8 5 2 1 4 12 9 4 5 11 11 10 11 12
13 15 18 19 20 21 18 10 2 2 3 3 2 4 2 3 3 1 1 3 1 0 0 1 3 3 3 5 6 6 8 12 8 6 3 5 15 3 4 10 12 11 10 11 12
14 15 18 20 23 17 15 4 1 3 2 1 2 4 3 2 5 2 2 1 3 2 3 4 3 6 6 6 5 9 8 7 14 3 11 18 25 21 17 9 12 11 10 11 13
14 15 17 20 23 15 10 3 3 4 4 4 1 3 3 3 3 2 1 3 3 4 4 3 5 9 3 2 5 8 10 16 17 7 10 12 21 20 15 14 12 11 9 12 14
15 15 17 19 19 13 7 3 3 4 8 4 2 1 1 2 4 3 2 4 4 7 2 4 8 4 2 3 8 11 15 17 6 5 16 16 21 15 14 12 10 6 9 12 14
15 15 15 18 13 7 6 3 1 3 5 2 1 2 1 3 2 4 2 1 6 7 9 10 3 3 3 7 10 12 12 12 13 19 11 11 12 5 1 4 6 8 7 11 12
14 15 14 14 3 4 2 5 1 2 4 3 2 2 1 1 3 1 2 3 4 4 3 9 4 4 7 9 2 6 3 9 15 11 5 5 6 6 6 7 8 7 9 12 12
14 13 14 8 7 4 4 4 1 3 5 3 2 1 1 3 1 3 1 2 6 3 2 1 3 5 3 4 2 7 13 14 9 3 9 6 3 3 4 8 8 4 11 12 12
17 8 12 6 1 1 4 4 2 1 7 2 2 1 2 3 2 1 3 2 2 3 7 6 1 2 2 5 6 11 10 4 1 2 3 6 2 6 3 1 1 6 12 13 13
14 7 7 3 0 3 4 3 2 4 1 1 0 1 2 2 3 2 3 6 4 3 5 3 4 3 1 4 3 7 8 4 3 2 3 6 6 8 4 2 3 9 12 12 11
10 8 2 1 2 3 3 0 6 2 3 1 1 2 4 3 3 2 4 5 7 4 4 3 4 4 1 2 1 3 4 2 7 6 10 8 6 0 3 2 5 5 9 10 11
4 3 3 1 1 2 2 3 4 1 3 3 2 2 3 2 4 3 7 4 1 8 4 3 2 4 4 2 0 2 2 2 3 2 4 4 5 5 3 4 9 8 11 10 10
3 3 3 2 2 2 1 4 4 3 3 2 7 4 4 2 1 3 4 2 4 2 1 2 4 3 4 2 1 3 6 2 3 5 7 5 6 7 2 9 13 10 10 10 11
3 1 3 3 3 0 3 3 2 1 2 2 1 3 4 2 5 3 3 3 2 4 1 4 1 3 3 5 4 3 3 2 1 2 4 7 5 3 2 7 12 11 10 10 11
3 1 3 2 1 0 2 2 1 1 2 2 5 5 4 1 4 2 5 3 2 6 2 3 2 5 1 4 0 1 3 4 3 4 4 3 8 6 3 5 8 10 10 9 9
2 1 2 3 1 1 1 2 2 3 2 2 3 4 2 2 4 4 3 2 3 2 1 3 3 4 3 2 2 4 5 3 3 1 7 3 5 5 5 8 6 8 8 8 8
2 1 1 1 1 2 2 2 3 4 3 4 3 2 1 4 5 4 3 0 1 1 1 3 3 5 5 2 1 4 8 10 5 4 3 9 15 6 4 7 6 6 6 6 5
1 2 1 1 2 3 0 2 2 2 4 4 3 9 5 3 1 4 4 2 3 4 1 2 4 2 8 7 2 7 5 13 14 5 6 1 5 15 11 6 5 5 4 4 4
2 2 2 2 1 4 4 2 2 2 4 3 5 2 8 5 2 2 2 3 2 6 2 1 2 3 5 2 3 6 10 11 14 11 14 14 17 1 1 1 4 4 3 3 2
2 1 2 3 2 2 3 3 2 0 5 4 4 3 6 8 4 7 7 5 4 3 7 3 3 2 4 1 6 7 7 13 7 8 6 6 1 3 2 5 4 4 4 4 3
Wind_Direction
9 5 3 1 2 3 4 6 7 8 7 45 127 137 136 55 22 17 28 333 322 317 327 305 206 136 147 117 306 273 240 260 266 273 52 133 295 304 262 270 277 277 276 312 339
4 0 1 2 357 359 1 359 359 358 358 9 157 176 191 344 312 17 341 331 331 331 340 332 146 175 148 155 196 248 261 358 29 336 289 303 286 300 290 282 281 281 278 330 329
359 358 358 360 356 353 354 350 349 341 345 351 161 197 220 305 278 25 338 343 346 4 24 53 152 222 188 225 162 196 292 40 315 297 303 293 289 282 276 274 281 305 307 316 318
356 356 356 354 353 351 348 345 338 334 313 299 203 191 235 265 308 0 342 347 5 5 237 157 193 213 200 217 190 267 256 273 339 283 286 287 295 279 270 276 349 312 315 309 313
353 353 353 351 349 347 346 340 329 319 291 261 211 187 210 239 260 350 351 353 10 14 12 37 228 219 226 234 238 249 300 286 293 277 283 291 277 273 279 275 237 288 291 297 305
349 351 351 349 346 345 343 334 323 305 254 225 205 192 234 260 130 357 346 40 38 34 44 2 10 349 116 255 241 340 297 295 298 284 280 284 284 282 266 64 247 256 278 294 303
345 346 347 347 343 342 337 333 329 308 214 197 198 190 244 291 132 0 28 74 39 36 44 38 19 277 38 215 322 300 296 261 205 291 306 330 279 231 222 187 259 270 295 304 312
341 343 345 345 342 341 338 333 337 317 181 191 203 211 276 171 212 6 160 97 58 50 70 28 350 323 282 78 216 258 255 330 152 209 94 343 283 322 126 259 277 294 298 309 315
336 341 344 344 343 340 335 329 332 149 174 192 195 244 246 162 208 98 164 267 163 348 357 291 267 288 213 258 236 215 307 310 325 165 237 230 288 296 234 262 281 284 297 306 316
328 334 341 342 343 341 339 335 293 123 153 187 246 246 167 199 142 118 80 181 255 211 241 229 239 255 230 263 279 297 306 296 304 276 278 290 276 276 276 271 265 281 291 314 324
321 327 334 340 342 347 354 303 229 190 206 257 360 316 148 114 144 110 142 183 222 232 248 168 253 236 285 244 298 288 280 286 297 8 311 276 284 282 281 266 249 259 295 314 322
312 319 325 336 343 357 12 34 27 328 297 200 224 178 128 191 208 174 161 211 214 244 194 227 245 62 98 251 265 275 283 295 317 189 323 296 288 286 276 252 247 276 299 320 320
300 309 318 333 340 11 52 39 345 7 262 163 184 204 111 201 271 152 221 222 247 246 227 253 359 140 242 267 277 280 277 303 298 319 278 306 272 200 249 190 202 238 327 323 319
293 299 309 333 340 350 42 347 357 30 279 163 165 100 143 244 232 59 41 294 230 275 270 261 90 235 259 276 265 290 37 306 307 327 307 19 296 231 172 212 214 242 335 325 318
321 281 285 315 312 328 330 340 315 258 302 91 126 73 107 250 27 148 53 196 256 262 206 32 227 241 273 266 168 260 325 301 314 271 320 150 254 222 171 238 227 268 330 326 324
338 296 270 297 345 350 337 311 282 283 245 135 128 159 222 203 217 135 214 214 323 269 226 262 68 244 264 290 251 297 301 301 166 311 264 162 246 275 166 355 264 315 329 327 316
331 288 245 256 317 316 348 297 326 228 315 106 208 205 255 229 244 240 218 209 229 240 218 177 208 139 311 289 198 328 297 313 278 234 307 166 254 292 106 108 308 313 317 311 308
314 258 222 199 270 312 73 251 239 236 244 106 232 226 242 134 231 236 250 245 211 211 285 264 237 181 53 58 327 12 304 33 299 313 308 196 245 358 106 158 285 279 297 298 315
218 134 88 24 224 276 113 272 248 304 326 351 264 255 251 177 232 248 225 249 107 192 214 260 229 118 82 79 237 87 241 50 274 117 275 235 243 134 166 228 329 324 310 310 313
142 103 25 29 61 280 96 224 263 13 343 60 201 210 256 128 235 241 217 131 160 158 164 65 282 168 123 131 117 280 140 214 148 310 302 304 296 275 226 328 317 321 311 311 310
102 52 5 79 76 31 224 255 308 39 345 284 274 260 241 277 249 250 293 150 173 145 176 161 245 132 155 193 159 156 216 195 295 232 298 311 312 95 179 318 305 307 308 306 315
109 258 10 50 85 4 266 326 314 295 195 278 261 256 216 254 273 254 263 347 138 156 187 154 298 261 228 106 21 293 277 228 237 158 231 280 275 125 184 298 291 300 303 308 323
98 87 27 20 230 210 197 269 263 219 215 233 264 239 62 233 255 226 288 23 159 191 204 167 194 292 186 140 154 228 193 223 97 47 229 256 288 160 241 282 298 289 303 324 331
147 191 62 30 54 260 276 217 244 200 248 240 286 214 194 234 199 293 297 70 211 273 100 169 271 255 268 5 16 214 196 199 214 220 180 237 288 273 343 306 316 302 320 332 339
183 230 56 191 237 217 253 301 294 292 226 220 245 228 207 262 211 234 249 253 195 162 126 286 270 294 273 276 228 257 221 196 207 245 233 10 264 297 316 302 320 314 316 329 347
157 176 175 148 170 189 188 225 279 273 225 213 238 345 225 252 253 18 343 235 264 177 228 148 287 332 275 101 211 271 233 210 225 250 260 276 285 310 55 295 269 273 262 243 219
60 29 302 166 177 223 207 221 266 288 222 259 257 282 242 258 317 300 274 301 288 192 199 203 275 297 275 250 297 267 217 182 187 205 201 206 205 163 241 247 263 235 231 242 229